Location: Cudham
(51.3000°N, 0.0667°E)
Time: 17:56:07
(UTC+00:00)

USA 229 DEB - Pass Details

Date: 25 April 2026
Orbit: 844 x 1364 km, 63.4° (Epoch: 10 January)

Event Time Altitude Azimuth Distance (km) Brightness Sun altitude
Rises 20:50:42 0° 307° (NW) 3,815 8.5 -13.6°
Reaches altitude 10° 20:53:24 10° 315° (NW) 2,936 7.5 -13.9°
Maximum altitude 21:00:03 41° 24° (NNE) 1,654 4.9 -14.7°
Drops below altitude 10° 21:07:27 10° 93° (E) 3,278 5.8 -15.5°
Enters shadow 21:07:50 - 94° (E) 3,398 5.9 -15.5°
